User: anonymous   Login
Location: Rowland
(34.5359°N, 79.2929°W)
Time: 14:08:59
(UTC+00:00)
Language:

Vanguard 3 - Orbit

View from above orbital plane
View from above orbital plane
View from above satellite
View from above satellite

Ground track
Ground track

The orbit data is extracted from the following two-line orbital elements,

1 00020U 59007A   22269.81527477  .00000343  00000-0  13974-3 0  9992
2 00020  33.3444  99.2547 1664453 358.3881   1.1783 11.56266990326822
Epoch (UTC): 26 September 2022 19:33:59
Eccentricity: 0.1664453
inclination: 33.3444°
perigee height: 508 km
apogee height: 3258 km
right ascension of ascending node: 99.2547°
argument of perigee: 358.3881°
revolutions per day: 11.56266990
mean anomaly at epoch: 1.1783°
orbit number at epoch: 32682

The dashed part of the orbit path shows where the satellite is in the earth's shadow,  

DLR